TimeMDT,TemperatureF,Dew PointF,Humidity,Sea Level PressureIn,VisibilityMPH,Wind Direction,Wind SpeedMPH,Gust SpeedMPH,PrecipitationIn,Events,Conditions,WindDirDegrees,DateUTC
12:53 AM,30.0,21.0,69,30.32,10.0,SE,3.5,-,N/A,,Clear,130,2013-10-06 06:53:00
1:53 AM,30.0,21.0,69,30.32,10.0,ENE,5.8,-,N/A,,Clear,60,2013-10-06 07:53:00
2:53 AM,27.0,19.9,75,30.32,10.0,ENE,4.6,-,N/A,,Clear,60,2013-10-06 08:53:00
3:53 AM,27.0,19.0,72,30.31,10.0,East,5.8,-,N/A,,Clear,80,2013-10-06 09:53:00
4:53 AM,25.0,18.0,75,30.34,10.0,NE,5.8,-,N/A,,Clear,40,2013-10-06 10:53:00
5:53 AM,26.1,17.1,69,30.35,10.0,Calm,Calm,-,N/A,,Clear,0,2013-10-06 11:53:00
6:53 AM,25.0,17.1,72,30.37,10.0,East,3.5,-,N/A,,Clear,90,2013-10-06 12:53:00
7:53 AM,26.1,18.0,71,30.38,10.0,ENE,3.5,-,N/A,,Clear,60,2013-10-06 13:53:00
8:53 AM,36.0,19.0,50,30.36,10.0,Calm,Calm,-,N/A,,Clear,0,2013-10-06 14:53:00
9:53 AM,44.1,18.0,35,30.35,10.0,Calm,Calm,-,N/A,,Clear,0,2013-10-06 15:53:00
10:53 AM,51.1,15.1,24,30.32,10.0,Variable,4.6,-,N/A,,Clear,0,2013-10-06 16:53:00
11:53 AM,55.9,18.0,23,30.31,10.0,SSW,6.9,-,N/A,,Clear,210,2013-10-06 17:53:00
12:53 PM,59.0,19.9,22,30.29,10.0,SSW,9.2,-,N/A,,Clear,200,2013-10-06 18:53:00
1:53 PM,61.0,19.9,21,30.24,10.0,SW,6.9,-,N/A,,Clear,220,2013-10-06 19:53:00
2:53 PM,64.9,21.9,19,30.22,10.0,SSW,12.7,-,N/A,,Clear,200,2013-10-06 20:53:00
3:53 PM,64.9,21.9,19,30.20,10.0,SSW,10.4,-,N/A,,Clear,200,2013-10-06 21:53:00
4:53 PM,66.9,21.0,17,30.19,10.0,SSW,10.4,18.4,N/A,,Clear,210,2013-10-06 22:53:00
5:53 PM,66.0,23.0,20,30.20,10.0,SSW,10.4,-,N/A,,Clear,210,2013-10-06 23:53:00
6:53 PM,61.0,23.0,23,30.22,10.0,SW,5.8,-,N/A,,Clear,230,2013-10-07 00:53:00
7:53 PM,50.0,26.1,39,30.27,10.0,South,4.6,-,N/A,,Clear,180,2013-10-07 01:53:00
8:53 PM,44.1,27.0,51,30.27,10.0,ENE,5.8,-,N/A,,Clear,70,2013-10-07 02:53:00
9:53 PM,45.0,28.0,52,30.25,10.0,ENE,4.6,-,N/A,,Clear,70,2013-10-07 03:53:00
10:53 PM,39.9,28.0,63,30.25,10.0,East,5.8,-,N/A,,Clear,80,2013-10-07 04:53:00
11:53 PM,37.0,27.0,67,30.23,10.0,NE,4.6,-,N/A,,Clear,50,2013-10-07 05:53:00